Wind_Speed
29 30 29 27 26 22 19 20 21 19 19 19 17 16 16 15 13 13 14 14 14 15 16 14 14 15 13 7 12 11 7 8 9 5 2 7 10 11 5 10 14 2 4 10 1 2 3
24 24 25 25 27 26 26 25 20 23 22 21 19 18 19 18 17 15 16 16 15 14 16 15 14 13 11 9 4 9 9 10 6 3 8 8 7 10 7 8 6 9 11 11 8 6 5
23 24 23 24 23 24 25 24 25 26 22 22 22 20 20 20 19 18 18 18 17 16 15 15 15 14 16 21 9 8 10 8 6 9 10 8 7 3 8 8 9 9 6 9 14 14 4
19 18 19 20 22 23 24 26 28 30 30 30 29 25 22 21 19 19 20 21 18 18 15 15 15 14 14 14 12 19 14 11 8 10 10 9 8 7 7 10 8 5 4 4 8 12 5
19 20 19 19 18 20 20 23 25 26 27 28 26 27 27 24 22 20 19 18 19 19 16 15 13 8 16 9 12 16 15 14 13 8 10 8 6 6 5 2 4 4 5 8 4 10 7
18 20 20 19 19 19 19 18 17 21 25 25 25 25 27 24 23 21 19 16 17 20 12 13 14 8 17 15 12 9 14 13 10 7 9 9 6 2 0 3 5 5 9 8 7 8 7
17 17 16 15 15 15 16 16 16 16 15 20 22 23 26 24 19 17 17 13 8 7 13 17 8 12 13 6 2 7 13 11 12 9 7 11 3 7 9 10 13 11 5 5 2 4 5
18 18 17 16 15 15 15 15 16 16 15 15 16 20 20 22 20 16 16 6 6 4 9 18 29 32 31 23 17 13 12 12 13 9 7 5 9 11 12 7 1 4 4 6 7 5 3
22 22 21 19 17 16 16 14 14 15 15 15 15 14 18 18 17 17 18 13 9 7 5 10 28 29 32 26 34 22 22 23 7 9 10 11 10 18 10 5 4 4 4 6 5 5 1
29 26 21 22 23 20 18 17 15 14 14 13 12 10 12 12 12 15 19 15 10 5 4 6 9 16 28 33 18 35 27 26 9 12 11 10 18 12 4 4 6 4 4 6 4 4 3
26 25 25 24 22 20 20 21 18 15 13 13 11 11 10 8 6 8 10 8 11 5 5 5 6 6 8 26 10 25 38 30 16 12 7 8 3 5 7 6 6 3 7 3 4 4 4
27 27 24 24 23 24 22 21 18 18 14 12 12 12 9 11 16 9 7 9 15 3 11 6 6 6 8 24 19 3 22 29 25 10 13 9 17 7 7 3 1 7 5 3 4 2 4
29 29 30 26 26 27 24 22 21 18 17 13 12 14 15 15 15 14 11 24 4 8 4 13 8 6 8 11 21 14 8 18 11 12 16 11 15 4 8 4 5 5 5 2 2 2 6
32 29 27 27 27 25 23 24 24 21 19 16 14 16 19 19 16 12 32 4 10 9 20 3 4 5 12 11 14 18 10 14 19 7 3 10 5 10 5 7 7 7 8 5 6 4 3
27 27 30 30 27 26 24 22 20 20 20 19 16 18 24 22 19 19 24 10 9 10 12 18 23 11 9 15 8 14 18 11 14 15 9 8 10 4 10 6 8 5 5 6 1 3 1
26 26 24 27 29 28 27 26 22 21 21 18 20 20 29 25 25 26 10 13 8 10 11 13 23 8 13 15 13 12 9 11 15 15 17 4 1 4 7 8 7 4 1 3 1 3 5
29 29 29 29 29 29 29 27 26 23 21 21 21 12 21 29 26 20 11 10 15 26 15 7 11 12 8 9 16 12 9 5 14 12 15 9 4 1 6 4 7 2 2 4 4 4 4
31 32 33 33 33 30 29 28 26 27 24 21 19 7 19 26 14 7 10 20 20 17 27 15 6 5 13 7 4 13 11 8 6 6 16 8 4 5 9 8 9 5 7 6 4 3 3
32 33 34 34 33 32 30 30 28 28 27 23 11 13 19 32 10 7 7 19 20 12 19 13 14 10 8 10 5 3 1 4 14 6 3 6 4 4 3 2 1 4 9 11 6 2 4
32 32 34 35 34 34 34 33 34 31 29 29 11 4 13 32 17 18 15 16 21 27 22 22 11 13 6 6 7 4 6 3 6 6 10 7 2 6 11 2 5 5 9 11 12 5 4
30 32 34 35 35 36 37 37 37 35 32 33 23 8 9 6 18 11 17 14 23 16 23 20 10 15 10 7 11 9 7 6 5 6 6 4 3 4 4 9 13 7 8 16 10 10 8
29 30 31 32 37 37 35 35 36 38 35 39 14 12 12 4 29 23 21 18 17 21 10 23 18 20 15 18 14 15 7 6 5 3 5 4 8 2 13 14 13 12 10 11 14 9 11
30 33 35 36 37 38 39 38 36 39 39 40 40 33 25 14 7 17 19 26 28 22 26 29 22 14 17 21 23 19 17 17 8 9 5 7 6 4 6 14 17 14 8 7 5 4 7
33 33 36 40 41 41 44 46 45 44 46 46 38 34 26 17 14 14 25 27 27 27 24 20 31 15 33 19 3 4 8 8 13 8 12 9 9 5 1 4 15 5 11 10 12 9 6
35 39 39 43 48 51 50 52 51 54 54 56 53 44 35 14 15 20 16 19 24 23 21 24 24 35 19 7 3 3 1 2 1 6 7 6 7 2 6 11 10 3 4 5 4 6 9
36 42 44 33 30 34 38 41 44 43 52 58 57 52 44 18 17 27 15 31 14 16 12 20 26 24 17 4 3 5 5 5 6 5 14 13 8 6 4 11 13 5 16 7 2 3 8
36 19 15 18 20 23 25 29 39 44 48 53 56 60 44 24 37 34 18 17 25 14 9 7 11 6 21 2 3 3 3 7 7 8 11 12 9 15 6 1 5 4 6 8 5 5 14
11 16 19 21 21 22 26 29 32 37 46 52 46 58 58 29 15 45 34 37 23 28 10 9 6 1 3 6 7 4 4 5 3 6 11 11 9 5 3 5 8 11 6 3 12 17 20
11 14 11 9 14 19 25 30 34 41 51 59 46 53 57 28 13 25 42 36 47 36 31 19 6 7 9 3 3 4 3 3 6 3 5 3 6 5 7 4 2 9 18 26 23 21 20
Wind_Direction
256 257 258 261 261 261 260 259 262 264 268 271 271 272 277 282 286 294 299 305 312 318 318 322 323 330 332 318 268 299 256 274 308 308 359 323 325 309 287 313 336 267 326 297 76 3 6
260 258 257 257 256 257 256 256 259 255 256 262 270 272 274 273 279 282 289 296 301 310 312 317 316 323 317 282 315 299 285 286 282 261 285 287 280 321 306 298 306 325 354 320 305 250 199
266 261 259 258 259 257 255 254 256 253 255 253 259 262 267 275 272 279 277 289 293 299 305 310 311 311 288 264 250 280 285 284 251 279 265 262 275 240 321 316 332 335 347 315 289 262 171
267 268 266 263 260 256 255 254 251 256 260 257 259 260 262 269 275 274 274 276 282 283 293 301 300 299 271 287 249 231 241 265 254 252 273 260 282 255 271 289 332 299 296 273 259 219 159
264 266 267 267 269 269 263 260 258 258 257 258 261 260 258 262 265 275 277 276 276 273 281 288 293 299 276 312 254 232 224 240 249 243 255 268 275 247 276 187 327 249 249 228 243 113 131
263 267 268 269 270 273 275 273 273 266 262 259 257 263 261 254 263 268 276 278 276 273 279 272 264 286 261 269 257 253 227 226 249 214 252 240 248 247 256 130 222 219 224 266 189 192 145
268 279 280 276 273 276 274 274 275 273 274 263 258 259 265 262 255 261 275 286 273 275 220 209 208 210 276 320 226 229 204 213 228 224 208 217 178 226 220 217 237 260 276 298 277 166 129
263 268 275 277 277 279 279 279 276 277 276 274 268 254 256 258 253 245 266 246 242 214 298 251 248 249 255 255 285 211 213 196 207 219 232 274 233 236 244 250 247 291 295 302 304 115 109
258 262 263 268 269 273 279 281 283 277 275 277 274 266 249 256 258 241 248 255 260 278 274 263 247 249 246 242 247 224 207 209 208 211 228 216 240 212 266 173 209 261 255 274 256 338 357
260 263 261 262 264 267 269 276 280 276 273 271 272 268 259 247 251 242 243 252 263 342 348 269 231 250 224 220 242 231 220 203 212 228 223 238 243 226 196 226 186 227 70 23 21 42 241
267 263 258 256 256 261 265 268 272 271 271 263 258 252 258 229 220 224 243 241 232 149 260 253 217 232 215 186 133 208 216 204 205 216 197 232 249 184 184 200 227 226 83 27 326 308 325
260 265 264 265 262 257 257 263 264 262 263 264 241 242 240 238 225 213 201 191 151 144 225 254 218 218 201 197 213 108 203 215 214 239 253 234 255 162 171 203 155 111 65 300 253 202 270
258 259 261 263 264 259 258 255 260 257 252 249 241 229 235 244 236 217 209 161 189 203 216 244 233 206 222 196 213 209 203 200 189 211 230 244 235 176 156 122 78 81 85 313 338 196 230
256 255 258 258 261 263 263 262 258 258 252 247 240 227 233 241 244 209 173 193 214 213 220 252 192 239 208 216 227 204 224 212 207 199 177 213 213 166 153 171 165 178 158 179 225 190 285
260 258 257 261 260 256 257 260 261 252 250 245 235 231 231 224 221 204 182 225 215 226 226 235 269 266 253 226 223 185 219 226 213 200 195 197 230 139 161 145 153 221 193 221 318 269 115
257 256 259 260 261 259 257 259 260 253 244 237 230 236 235 226 210 194 214 220 215 232 293 272 227 231 222 229 219 189 194 224 220 207 210 284 136 139 132 138 231 142 243 88 334 214 231
252 255 260 258 257 256 255 256 254 248 238 235 231 231 237 225 202 196 211 216 223 237 251 267 259 250 253 228 218 201 206 212 204 213 211 217 104 261 99 182 157 158 263 219 179 188 205
255 255 255 257 257 255 254 248 246 240 236 230 238 217 226 201 194 190 205 205 227 227 234 245 285 290 241 269 273 236 225 177 98 225 206 177 145 202 203 175 207 205 200 191 136 260 236
256 257 256 254 253 249 247 244 241 238 229 225 227 221 218 200 213 195 209 213 232 223 233 219 219 196 246 253 245 208 270 160 116 61 182 171 186 144 123 320 252 201 222 217 204 129 230
258 257 255 252 249 249 247 242 239 236 234 223 217 229 202 200 201 209 200 219 216 227 237 233 254 245 256 248 220 250 244 53 43 112 77 57 142 169 219 134 166 220 221 235 207 203 180
261 259 258 256 252 252 249 244 237 235 231 220 204 223 229 207 198 201 210 204 213 224 218 233 253 236 233 236 250 219 214 194 121 94 79 98 20 11 306 332 288 211 231 228 227 205 190
270 267 263 259 255 251 251 244 237 234 224 221 215 207 225 289 200 202 209 218 217 226 219 219 228 235 227 239 221 240 188 213 177 120 105 179 210 225 274 267 284 277 223 222 239 226 214
270 268 264 261 259 255 253 246 247 233 225 220 222 224 233 234 222 203 213 217 215 222 219 224 220 231 237 234 239 254 227 205 169 147 140 152 153 145 237 229 266 265 223 231 214 235 200
276 269 266 262 259 254 248 247 242 236 227 225 221 216 215 227 228 220 214 215 215 214 229 223 218 232 235 243 118 339 24 147 138 147 151 154 167 158 150 199 225 230 188 224 218 220 172
275 276 265 264 261 255 252 250 247 244 241 229 220 212 209 225 219 223 211 224 231 235 229 229 233 226 241 145 103 143 81 64 250 179 175 168 174 186 172 217 275 293 169 155 188 257 188
278 273 276 264 247 244 241 241 232 234 220 215 216 209 203 207 217 218 205 205 207 219 245 250 235 232 180 133 162 177 180 160 168 202 205 203 189 207 175 218 240 262 225 168 92 69 31
294 267 247 252 248 250 236 229 224 213 208 208 211 205 202 214 227 214 218 214 209 198 221 235 224 176 185 144 155 174 184 161 165 169 173 190 202 209 207 186 288 198 75 95 159 180 99
254 246 257 257 257 252 250 239 233 231 225 221 219 199 198 205 224 219 225 228 216 207 201 179 129 83 133 202 176 174 160 214 138 169 179 184 174 191 143 195 241 134 140 171 136 116 119
260 273 266 295 296 267 251 247 247 238 227 216 214 207 193 199 212 228 220 235 229 228 209 178 194 140 169 154 245 133 180 136 142 177 151 169 166 154 169 202 47 117 117 128 127 127 127
Height
1517 1520 1521 1522 1524 1525 1527 1527 1529 1531 1532 1533 1533 1533 1535 1536 1535 1535 1534 1533 1533 1532 1531 1529 1528 1527 1525 1525 1520 1518 1519 1520 1519 1518 1517 1518 1518 1517 1518 1514 1511 1507 1506 1506 1507 1507 1508
1511 1512 1514 1516 1517 1519 1521 1522 1523 1525 1526 1529 1530 1529 1530 1531 1532 1532 1532 1531 1531 1530 1530 1528 1527 1526 1525 1527 1518 1517 1517 1518 1518 1517 1517 1517 1517 1516 1514 1513 1514 1509 1507 1507 1507 1508 1508
1505 1506 1507 1509 1511 1512 1514 1517 1518 1520 1521 1522 1524 1526 1527 1527 1527 1529 1529 1529 1528 1528 1528 1527 1527 1523 1522 1515 1518 1515 1513 1515 1518 1518 1516 1516 1514 1514 1514 1513 1511 1509 1510 1508 1505 1506 1507
1501 1502 1501 1503 1505 1507 1509 1510 1512 1513 1515 1517 1519 1521 1522 1524 1524 1524 1525 1525 1525 1524 1525 1525 1524 1523 1513 1512 1512 1513 1512 1513 1515 1516 1516 1515 1514 1514 1512 1512 1512 1513 1513 1520 1501 1500 1508
1496 1497 1497 1498 1500 1501 1502 1505 1506 1508 1509 1511 1512 1515 1516 1519 1520 1520 1520 1520 1521 1520 1521 1522 1522 1524 1510 1507 1507 1508 1510 1510 1513 1514 1515 1515 1514 1514 1510 1514 1521 1514 1523 1513 1505 1495 1501
1492 1493 1493 1494 1495 1497 1498 1499 1501 1502 1505 1506 1507 1509 1511 1509 1515 1517 1517 1516 1517 1516 1516 1519 1519 1524 1508 1502 1503 1505 1506 1508 1511 1511 1514 1514 1514 1512 1510 1518 1531 1518 1516 1506 1506 1499 1501
1488 1489 1489 1490 1491 1492 1494 1494 1496 1498 1499 1500 1501 1503 1505 1508 1506 1514 1516 1513 1515 1516 1512 1506 1507 1504 1499 1502 1502 1504 1505 1505 1506 1509 1513 1510 1516 1516 1510 1508 1505 1505 1504 1505 1499 1495 1499
1484 1484 1486 1486 1487 1488 1489 1491 1491 1493 1495 1497 1496 1496 1499 1504 1504 1506 1513 1510 1515 1512 1507 1502 1500 1500 1500 1499 1503 1501 1506 1505 1504 1506 1507 1512 1514 1504 1501 1501 1500 1502 1505 1507 1498 1499 1502
1479 1480 1482 1483 1483 1483 1486 1486 1489 1489 1491 1493 1493 1494 1493 1497 1502 1503 1505 1512 1510 1512 1510 1497 1494 1487 1490 1495 1492 1495 1498 1500 1499 1502 1502 1507 1498 1495 1494 1498 1501 1503 1505 1507 1507 1501 1499
1472 1474 1475 1477 1479 1480 1482 1483 1484 1485 1487 1489 1491 1489 1491 1493 1500 1500 1501 1507 1513 1512 1513 1492 1486 1468 1472 1481 1478 1488 1490 1495 1496 1497 1495 1494 1490 1491 1492 1496 1497 1506 1500 1502 1504 1509 1521
1465 1467 1468 1471 1472 1475 1477 1479 1480 1481 1483 1485 1488 1487 1488 1490 1493 1497 1503 1505 1510 1515 1517 1473 1469 1467 1462 1471 1468 1473 1481 1487 1486 1488 1489 1488 1482 1487 1491 1493 1494 1500 1498 1505 1508 1513 1516
1458 1461 1462 1464 1466 1468 1470 1474 1475 1477 1480 1482 1483 1485 1487 1487 1489 1495 1499 1504 1507 1517 1504 1471 1462 1460 1463 1464 1464 1470 1477 1484 1486 1487 1481 1480 1480 1482 1484 1487 1492 1497 1502 1508 1508 1516 1527
1450 1452 1455 1457 1459 1462 1464 1466 1471 1473 1476 1478 1480 1482 1483 1485 1486 1492 1497 1501 1505 1499 1476 1462 1457 1459 1460 1459 1462 1466 1472 1477 1481 1493 1487 1479 1475 1478 1481 1492 1492 1497 1512 1530 1527 1527 1518
1442 1444 1447 1450 1452 1454 1457 1460 1464 1468 1471 1474 1476 1479 1479 1481 1485 1490 1492 1495 1483 1473 1469 1455 1450 1453 1458 1459 1458 1463 1470 1472 1473 1476 1484 1485 1485 1475 1475 1484 1495 1499 1507 1532 1515 1515 1504
1435 1436 1439 1442 1444 1447 1451 1454 1458 1462 1465 1469 1473 1473 1475 1476 1479 1485 1487 1482 1476 1470 1460 1461 1456 1458 1458 1456 1457 1459 1467 1466 1466 1469 1485 1478 1472 1461 1466 1475 1487 1493 1504 1496 1504 1499 1510
1426 1430 1431 1434 1437 1440 1443 1447 1450 1456 1460 1464 1466 1469 1466 1470 1474 1479 1480 1472 1470 1464 1459 1458 1457 1454 1452 1456 1454 1459 1464 1454 1459 1463 1468 1470 1475 1463 1470 1474 1481 1486 1488 1507 1509 1512 1506
1418 1421 1423 1426 1429 1432 1435 1439 1444 1448 1454 1460 1462 1463 1457 1463 1469 1469 1468 1466 1463 1459 1461 1462 1457 1453 1449 1450 1446 1450 1453 1450 1448 1457 1462 1469 1478 1475 1475 1482 1483 1490 1495 1489 1494 1499 1504
1409 1411 1414 1418 1420 1423 1426 1431 1436 1442 1448 1453 1452 1452 1450 1455 1460 1455 1457 1455 1456 1452 1457 1458 1455 1453 1452 1450 1447 1446 1445 1447 1444 1452 1457 1460 1478 1481 1475 1475 1473 1478 1485 1486 1508 1494 1493
1399 1401 1404 1407 1410 1414 1417 1422 1428 1433 1440 1444 1446 1441 1445 1446 1446 1446 1451 1448 1448 1446 1447 1448 1449 1447 1448 1450 1457 1446 1442 1442 1442 1450 1456 1458 1480 1484 1480 1482 1477 1479 1477 1477 1481 1487 1495
1389 1391 1394 1397 1400 1403 1407 1412 1417 1424 1431 1437 1442 1436 1433 1433 1436 1438 1441 1440 1440 1438 1442 1443 1445 1444 1445 1448 1448 1448 1444 1447 1446 1448 1454 1456 1465 1469 1469 1472 1478 1482 1475 1473 1479 1495 1489
1380 1381 1383 1385 1388 1391 1395 1400 1406 1413 1421 1429 1425 1422 1417 1418 1422 1427 1427 1427 1431 1435 1436 1437 1441 1440 1443 1450 1445 1446 1445 1448 1453 1455 1453 1464 1475 1469 1466 1472 1476 1469 1470 1469 1477 1477 1485
1370 1371 1372 1373 1376 1379 1383 1388 1394 1402 1411 1415 1409 1412 1413 1410 1408 1417 1421 1425 1424 1426 1430 1432 1434 1433 1437 1440 1440 1439 1441 1446 1445 1453 1456 1463 1475 1474 1478 1475 1477 1469 1466 1467 1467 1469 1468
1360 1360 1360 1362 1364 1366 1370 1375 1381 1389 1397 1396 1402 1405 1411 1405 1405 1410 1414 1414 1412 1419 1419 1420 1424 1431 1432 1425 1433 1434 1435 1437 1441 1449 1458 1466 1471 1471 1479 1479 1482 1473 1465 1465 1469 1465 1466
1349 1347 1347 1348 1349 1352 1355 1360 1366 1373 1380 1386 1387 1397 1403 1397 1400 1398 1399 1403 1404 1408 1414 1414 1423 1424 1419 1431 1433 1436 1435 1436 1437 1445 1450 1462 1466 1475 1470 1471 1479 1456 1449 1452 1457 1460 1462
1335 1333 1332 1331 1331 1332 1336 1341 1347 1354 1362 1370 1375 1384 1388 1390 1390 1392 1399 1399 1407 1410 1411 1412 1412 1413 1423 1427 1441 1446 1447 1449 1446 1447 1450 1454 1463 1472 1468 1467 1456 1449 1445 1450 1454 1458 1455
1321 1318 1314 1311 1312 1314 1317 1320 1327 1330 1340 1353 1359 1369 1378 1380 1375 1383 1388 1395 1399 1403 1410 1404 1409 1412 1417 1426 1436 1438 1443 1441 1450 1448 1449 1455 1459 1470 1461 1462 1465 1453 1442 1446 1450 1470 1462
1308 1304 1304 1305 1306 1307 1309 1311 1315 1320 1328 1337 1343 1354 1368 1372 1372 1379 1381 1381 1391 1398 1401 1407 1407 1410 1415 1422 1428 1429 1432 1428 1439 1441 1446 1452 1458 1458 1458 1464 1460 1448 1442 1446 1459 1474 1468
1300 1299 1299 1299 1299 1299 1300 1302 1305 1309 1316 1322 1327 1336 1351 1360 1364 1371 1374 1381 1383 1389 1395 1399 1408 1411 1416 1418 1415 1428 1430 1428 1429 1430 1433 1440 1450 1457 1457 1465 1464 1443 1448 1452 1461 1464 1469
1297 1295 1294 1293 1291 1289 1288 1289 1288 1289 1293 1305 1317 1327 1346 1357 1360 1365 1369 1375 1377 1381 1388 1392 1396 1400 1408 1413 1413 1412 1422 1423 1425 1436 1429 1444 1443 1448 1451 1453 1445 1446 1448 1455 1457 1464 1470